KA1JKB Weather Reports


time (UTC)temp
F
wind
direction
speed
knots
gust
knots
rain 1hr
in
rain 24hr
in
rain mn
in
humidity
%
barometer
mb
20260903043343 77 118 0.0 0.0 0.00 0.00 0.00 95 1011.8
20260903042842 78 135 0.0 0.0 0.00 0.00 0.00 94 1011.5
20260903042337 78 119 0.9 0.9 0.00 0.00 0.00 94 1011.7
20260903041833 78 147 0.9 1.7 0.00 0.00 0.00 94 1011.6
20260903041329 78 131 0.0 5.2 0.00 0.00 0.00 94 1011.6
20260903040825 78 134 0.0 0.9 0.00 0.00 0.00 95 1011.4
20260903040323 78 166 0.0 0.9 0.00 0.00 0.00 95 1011.3
20260903035820 78 152 0.9 0.9 0.00 0.00 0.00 95 1011.4
20260903035315 78 144 0.0 0.9 0.00 0.00 0.00 95 1011.3
20260903034810 78 146 0.9 0.9 0.00 0.00 0.00 95 1011.4
20260903034305 78 156 0.0 1.7 0.00 0.00 0.00 95 1011.2
20260903033800 78 143 0.0 1.7 0.00 0.00 0.00 95 1010.8
20260903033250 77 135 0.0 0.9 0.00 0.00 0.00 95 1010.9
20260903032749 77 220 0.9 3.5 0.00 0.00 0.00 95 1010.6
20260903032246 77 190 0.9 0.9 0.00 0.00 0.00 95 1010.6
20260903031742 77 148 0.9 0.9 0.00 0.00 0.00 95 1011.0
20260903031240 77 139 0.0 0.9 0.00 0.00 0.00 96 1010.7
20260903030737 76 143 0.9 0.9 0.00 0.00 0.00 97 1011.0
20260903030232 76 141 0.0 0.9 0.00 0.00 0.00 97 1010.7
20260903025728 76 150 0.0 0.0 0.00 0.00 0.00 97 1010.5
20260903025223 76 149 0.0 0.0 0.00 0.00 0.00 97 1010.8
20260903024723 75 146 0.0 0.0 0.00 0.00 0.00 97 1010.9
20260903024222 75 146 0.0 0.0 0.00 0.00 0.00 97 1010.9
20260903023718 75 146 0.0 0.0 0.00 0.00 0.00 97 1010.8
20260903023214 75 147 0.0 0.0 0.00 0.00 0.00 97 1010.7
20260903022713 75 147 0.0 0.0 0.00 0.00 0.00 97 1010.6
20260903022213 75 146 0.0 0.0 0.00 0.00 0.00 97 1010.7
20260903021713 75 146 0.0 0.0 0.00 0.00 0.00 97 1011.3
20260903021208 75 146 0.0 0.0 0.00 0.00 0.00 96 1011.3
20260903020702 75 146 0.0 0.0 0.00 0.00 0.00 95 1011.6
20260903020202 75 146 0.0 0.0 0.00 0.00 0.00 95 1011.4
20260903015658 75 146 0.0 0.0 0.00 0.00 0.00 94 1011.4
20260903015153 75 146 0.0 0.0 0.00 0.00 0.00 94 1011.5
20260903014648 76 146 0.0 0.0 0.00 0.00 0.00 93 1011.4
20260903014147 76 146 0.0 0.0 0.00 0.00 0.00 93 1011.2
20260903013643 77 146 0.0 0.0 0.00 0.00 0.00 93 1011.2
20260903013142 77 146 0.0 0.0 0.00 0.00 0.00 92 1011.3
20260903012641 77 146 0.0 0.0 0.00 0.00 0.00 92 1011.5
20260903012140 78 146 0.0 0.0 0.00 0.00 0.00 92 1011.3
20260903011635 78 146 0.0 0.0 0.00 0.00 0.00 91 1011.3
20260903011135 78 146 0.0 0.0 0.00 0.00 0.00 92 1011.2
20260903010630 78 146 0.0 0.9 0.00 0.00 0.00 92 1011.3
20260903010129 78 145 0.0 0.0 0.00 0.00 0.00 92 1011.0
20260903005624 78 145 0.0 0.9 0.00 0.00 0.00 91 1011.2
20260903005119 78 143 0.0 0.9 0.00 0.00 0.00 91 1011.0
20260903004619 78 144 0.0 0.9 0.00 0.00 0.00 90 1010.8
20260903004114 79 143 0.0 0.0 0.00 0.00 0.00 89 1010.9
20260903003610 79 143 0.0 0.0 0.00 0.00 0.00 88 1010.7
20260903003105 80 143 0.0 0.0 0.00 0.00 0.00 87 1010.8
20260903002600 80 145 0.0 0.0 0.00 0.00 0.00 87 1010.9
20260903002054 80 144 0.0 0.9 0.00 0.00 0.00 86 1010.8
20260903001549 81 146 0.0 0.9 0.00 0.00 0.00 85 1010.7
20260903001049 81 149 0.0 0.9 0.00 0.00 0.00 84 1010.4
20260903000544 82 143 0.0 0.9 0.00 0.00 0.00 83 1010.6
20260903000038 82 140 0.0 0.0 0.00 0.00 0.00 82 1010.7
20260902235537 83 141 0.0 0.0 0.00 0.00 0.00 82 1010.6
20260902235033 83 143 0.0 0.9 0.00 0.00 0.00 81 1010.6
20260902234532 84 137 0.0 0.0 0.00 0.00 0.00 80 1010.6
20260902234031 84 140 0.0 0.0 0.00 0.00 0.00 79 1010.7
20260902233526 85 146 0.0 0.9 0.00 0.00 0.00 77 1010.7
20260902233020 85 140 0.0 0.9 0.00 0.00 0.00 76 1010.6
20260902232520 86 137 0.0 0.9 0.00 0.00 0.00 75 1010.8
20260902232014 87 159 0.9 1.7 0.00 0.00 0.00 74 1010.8
20260902231509 87 152 0.9 2.6 0.00 0.00 0.00 72 1010.7
20260902231003 88 166 0.9 2.6 0.00 0.00 0.00 71 1010.5
20260902230503 89 151 0.0 1.7 0.00 0.00 0.00 71 1010.7
20260902230003 89 147 0.9 0.9 0.00 0.00 0.00 70 1010.5
20260902225458 90 160 0.9 2.6 0.00 0.00 0.00 68 1010.7
20260902224958 90 145 0.0 1.7 0.00 0.00 0.00 68 1010.7
20260902224457 90 164 0.9 1.7 0.00 0.00 0.00 68 1010.6
20260902223954 89 141 0.0 2.6 0.00 0.00 0.00 67 1010.6
20260902223449 90 145 0.9 2.6 0.00 0.00 0.00 67 1010.6
20260902222948 90 252 0.9 1.7 0.00 0.00 0.00 65 1010.6
20260902222447 90 169 0.9 3.5 0.00 0.00 0.00 65 1010.5
20260902221946 91 210 3.5 3.5 0.00 0.00 0.00 65 1010.6
20260902221445 91 96 0.9 2.6 0.00 0.00 0.00 64 1010.6
20260902220942 90 159 0.9 2.6 0.00 0.00 0.00 65 1010.6
20260902220441 90 252 2.6 6.1 0.00 0.00 0.00 65 1010.8
20260902215936 91 175 0.9 6.1 0.00 0.00 0.00 66 1010.6
20260902215432 91 219 2.6 5.2 0.00 0.00 0.00 64 1010.4
20260902214928 90 198 1.7 3.5 0.00 0.00 0.00 66 1010.6
20260902214427 91 172 0.9 1.7 0.00 0.00 0.00 67 1010.5
20260902213926 91 186 1.7 3.5 0.00 0.00 0.00 65 1010.7
20260902213423 91 200 3.5 5.2 0.00 0.00 0.00 63 1010.7
20260902212921 91 141 0.9 2.6 0.00 0.00 0.00 65 1011.0
20260902212418 90 172 1.7 3.5 0.00 0.00 0.00 65 1010.7
20260902211914 91 169 1.7 5.2 0.00 0.00 0.00 65 1010.8
20260902211410 91 219 2.6 3.5 0.00 0.00 0.00 64 1011.2
20260902210905 91 176 0.9 7.0 0.00 0.00 0.00 66 1011.0
20260902210404 91 210 1.7 5.2 0.00 0.00 0.00 65 1011.0
20260902205903 91 325 1.7 5.2 0.00 0.00 0.00 64 1011.3
20260902205357 93 205 3.5 5.2 0.00 0.00 0.00 64 1011.2
20260902204853 92 224 2.6 3.5 0.00 0.00 0.00 63 1011.2
20260902204353 92 186 2.6 6.1 0.00 0.00 0.00 63 1011.3
20260902203848 92 186 1.7 2.6 0.00 0.00 0.00 64 1011.5
20260902203344 91 277 1.7 6.1 0.00 0.00 0.00 64 1011.5
20260902202838 91 290 1.7 3.5 0.00 0.00 0.00 65 1011.7
20260902202334 92 163 1.7 6.1 0.00 0.00 0.00 65 1011.7
20260902201830 93 250 3.5 5.2 0.00 0.00 0.00 62 1011.8
20260902201330 92 260 3.5 5.2 0.00 0.00 0.00 63 1011.9
20260902200825 92 251 1.7 2.6 0.00 0.00 0.00 64 1011.9
20260902200320 93 148 1.7 5.2 0.00 0.00 0.00 66 1011.9
20260902195816 92 199 2.6 3.5 0.00 0.00 0.00 66 1012.0
20260902195315 91 227 3.5 6.1 0.00 0.00 0.00 64 1012.0
20260902194810 91 204 2.6 3.5 0.00 0.00 0.00 64 1012.0
20260902194304 91 149 1.7 3.5 0.00 0.00 0.00 65 1012.0
20260902193800 91 180 1.7 2.6 0.00 0.00 0.00 68 1012.2
20260902193256 92 160 0.9 6.1 0.00 0.00 0.00 64 1012.1
20260902192754 92 192 1.7 3.5 0.00 0.00 0.00 64 1012.0
20260902192254 93 273 2.6 5.2 0.00 0.00 0.00 63 1012.2
20260902191753 93 151 1.7 5.2 0.00 0.00 0.00 65 1012.2
20260902191248 93 200 2.6 3.5 0.00 0.00 0.00 64 1012.3
20260902190744 93 199 2.6 5.2 0.00 0.00 0.00 65 1012.5
20260902190243 92 186 0.9 5.2 0.00 0.00 0.00 65 1012.5
20260902185739 92 259 1.7 5.2 0.00 0.00 0.00 65 1012.5
20260902185235 91 155 1.7 3.5 0.00 0.00 0.00 66 1012.3
20260902184730 91 137 0.9 3.5 0.00 0.00 0.00 66 1012.6
20260902184226 91 219 2.6 7.8 0.00 0.00 0.00 64 1012.5
20260902183721 92 185 1.7 3.5 0.00 0.00 0.00 64 1012.4
20260902183217 92 235 3.5 6.1 0.00 0.00 0.00 67 1012.4
20260902182713 91 190 2.6 3.5 0.00 0.00 0.00 68 1012.4
20260902182210 91 158 0.9 2.6 0.00 0.00 0.00 71 1012.5
20260902181706 91 129 1.7 6.1 0.00 0.00 0.00 71 1012.7
20260902181206 90 142 0.9 2.6 0.00 0.00 0.00 70 1012.8
20260902180706 90 273 1.7 3.5 0.00 0.00 0.00 69 1012.6
20260902180201 90 206 2.6 3.5 0.00 0.00 0.00 68 1012.9
20260902175701 90 243 1.7 2.6 0.00 0.00 0.00 69 1012.9
20260902175157 91 103 1.7 2.6 0.00 0.00 0.00 69 1012.7
20260902174654 91 289 1.7 2.6 0.00 0.00 0.00 68 1013.0
20260902174149 91 148 1.7 3.5 0.00 0.00 0.00 69 1013.1
20260902173644 90 216 2.6 3.5 0.00 0.00 0.00 70 1012.9
20260902173139 90 240 1.7 6.1 0.00 0.00 0.00 71 1013.1
20260902172639 91 289 1.7 3.5 0.00 0.00 0.00 71 1013.1
20260902172138 91 177 1.7 2.6 0.00 0.00 0.00 69 1013.1
20260902171633 91 266 1.7 2.6 0.00 0.00 0.00 69 1013.1
20260902171129 91 158 0.9 2.6 0.00 0.00 0.00 73 1013.4
20260902170625 91 159 0.9 2.6 0.00 0.00 0.00 70 1013.2
20260902170120 90 205 1.7 2.6 0.00 0.00 0.00 71 1013.2
20260902165621 89 200 1.7 5.2 0.00 0.00 0.00 73 1013.3
20260902165120 89 251 2.6 3.5 0.00 0.00 0.00 73 1013.2
20260902164616 88 273 3.5 7.0 0.00 0.00 0.00 73 1013.3
20260902164114 88 134 0.9 1.7 0.00 0.00 0.00 74 1013.6
20260902163610 89 155 0.9 1.7 0.00 0.00 0.00 72 1013.6
20260902163108 91 198 3.5 5.2 0.00 0.00 0.00 70 1013.5
20260902162608 91 177 1.7 5.2 0.00 0.00 0.00 73 1013.4
20260902162103 89 143 0.9 3.5 0.00 0.00 0.00 74 1013.3
20260902161558 89 155 1.7 3.5 0.00 0.00 0.00 72 1013.3
20260902161054 89 161 0.9 0.9 0.00 0.00 0.00 72 1013.4
20260902160549 89 185 0.9 3.5 0.00 0.00 0.00 74 1013.5
20260902160045 89 135 2.6 2.6 0.00 0.00 0.00 73 1013.4
20260902155538 88 293 2.6 5.2 0.00 0.00 0.00 72 1013.4
20260902155037 88 157 0.9 1.7 0.00 0.00 0.00 76 1013.4
20260902154532 87 199 0.9 2.6 0.00 0.00 0.00 77 1013.4
20260902154027 86 232 1.7 5.2 0.00 0.00 0.00 78 1013.5
20260902153525 86 286 2.6 5.2 0.00 0.00 0.00 77 1013.6
20260902153021 87 260 0.9 1.7 0.00 0.00 0.00 76 1013.6
20260902152518 88 219 1.7 3.5 0.00 0.00 0.00 77 1013.6
20260902152013 87 160 1.7 3.5 0.00 0.00 0.00 76 1013.6
20260902151508 87 226 4.3 5.2 0.00 0.00 0.00 75 1013.5
20260902151007 86 158 1.7 3.5 0.00 0.00 0.00 77 1013.6
20260902150503 87 135 1.7 2.6 0.00 0.00 0.00 77 1013.5
20260902145958 87 155 0.9 1.7 0.00 0.00 0.00 79 1013.4
20260902145453 86 177 1.7 3.5 0.00 0.00 0.00 78 1013.4
20260902144953 86 153 1.7 2.6 0.00 0.00 0.00 79 1013.4
20260902144450 86 215 1.7 3.5 0.00 0.00 0.00 79 1013.4
20260902143950 86 179 0.9 2.6 0.00 0.00 0.00 79 1013.3
20260902143445 85 165 0.9 2.6 0.00 0.00 0.00 81 1013.4
20260902142940 85 288 2.6 3.5 0.00 0.00 0.00 79 1013.3
20260902142436 84 130 2.6 2.6 0.00 0.00 0.00 81 1013.3
20260902141931 84 300 2.6 5.2 0.00 0.00 0.00 79 1013.1
20260902141426 83 196 1.7 3.5 0.00 0.00 0.00 81 1013.1
20260902140926 83 193 2.6 5.2 0.00 0.00 0.00 82 1013.2
20260902140422 83 163 1.7 2.6 0.00 0.00 0.00 83 1013.3
20260902135921 82 264 2.6 5.2 0.00 0.00 0.00 83 1013.3
20260902135417 82 129 1.7 2.6 0.00 0.00 0.00 85 1013.3
20260902134916 82 235 1.7 3.5 0.00 0.00 0.00 84 1013.1
20260902134412 82 189 1.7 3.5 0.00 0.00 0.00 86 1013.2
20260902133907 82 250 0.9 1.7 0.00 0.00 0.00 88 1013.3
20260902133407 81 138 0.9 2.6 0.00 0.00 0.00 89 1013.2
20260902132902 80 287 1.7 2.6 0.00 0.00 0.00 89 1013.2
20260902132357 80 207 2.6 2.6 0.00 0.00 0.00 89 1013.2
20260902131852 80 256 2.6 2.6 0.00 0.00 0.00 90 1013.2
20260902131349 79 138 0.9 2.6 0.00 0.00 0.00 91 1013.3
20260902130848 79 175 0.9 1.7 0.00 0.00 0.00 92 1013.3
20260902130344 79 153 0.9 1.7 0.00 0.00 0.00 93 1013.4
20260902125838 78 112 0.9 1.7 0.00 0.00 0.00 93 1013.4
20260902125335 78 186 1.7 3.5 0.00 0.00 0.00 94 1013.5
20260902124831 78 146 0.9 2.6 0.00 0.00 0.00 95 1013.4
20260902124326 77 138 0.0 0.9 0.00 0.00 0.00 97 1013.3
20260902123821 76 162 1.7 1.7 0.00 0.00 0.00 98 1013.3
20260902123318 76 145 0.0 1.7 0.00 0.00 0.00 99 1013.3
20260902122816 75 220 0.0 1.7 0.00 0.00 0.00 99 1013.3
20260902122312 75 134 0.0 0.0 0.00 0.00 0.00 99 1013.2
20260902121812 74 175 0.0 0.0 0.00 0.00 0.00 99 1013.2
20260902121307 74 135 0.0 0.0 0.00 0.00 0.00 99 1013.1
20260902120802 74 173 0.0 0.0 0.00 0.00 0.00 99 1013.3
20260902120259 73 163 0.0 0.0 0.00 0.00 0.00 99 1013.2
20260902115753 72 142 0.0 0.0 0.00 0.00 0.00 99 1013.4
20260902115250 72 135 0.0 0.0 0.00 0.00 0.00 99 1013.2
20260902114746 71 127 0.0 0.0 0.00 0.00 0.00 99 1013.3
20260902114242 71 133 0.0 0.0 0.00 0.00 0.00 99 1013.1
20260902113741 71 130 0.0 0.0 0.00 0.00 0.00 99 1013.2
20260902113237 71 134 0.0 0.0 0.00 0.00 0.00 99 1013.0
20260902112736 72 148 0.0 0.0 0.00 0.00 0.00 99 1013.1
20260902112234 72 142 0.0 0.0 0.00 0.00 0.00 99 1013.1
20260902111729 72 145 0.0 0.0 0.00 0.00 0.00 99 1013.1
20260902111225 72 135 0.0 0.0 0.00 0.00 0.00 99 1013.2
20260902110720 72 149 0.0 0.0 0.00 0.00 0.00 99 1013.5
20260902110216 72 110 0.0 0.0 0.00 0.00 0.00 99 1013.3
20260902105715 72 147 0.0 0.0 0.00 0.00 0.00 99 1013.6
20260902105211 71 183 0.0 0.9 0.00 0.00 0.00 99 1013.6
20260902104706 71 136 0.0 0.9 0.00 0.00 0.00 99 1013.6
20260902104202 72 143 0.0 0.9 0.00 0.00 0.00 99 1013.4
20260902103701 72 141 0.0 0.9 0.00 0.00 0.00 99 1013.5
20260902103156 72 141 0.0 0.9 0.00 0.00 0.00 99 1013.4
20260902102652 73 142 0.0 0.9 0.00 0.00 0.00 99 1013.6
20260902102149 72 154 0.9 0.9 0.00 0.00 0.00 99 1013.4
20260902101644 72 149 0.0 0.9 0.00 0.00 0.00 99 1013.2
20260902101144 71 144 0.0 0.9 0.00 0.00 0.00 99 1013.3
20260902100639 70 140 0.0 0.9 0.00 0.00 0.00 99 1013.3
20260902100133 69 135 0.0 0.0 0.00 0.00 0.00 99 1013.1
20260902095632 69 135 0.0 0.0 0.00 0.00 0.00 99 1013.1
20260902095132 70 135 0.0 0.0 0.00 0.00 0.00 99 1013.1
20260902094627 70 135 0.0 0.0 0.00 0.00 0.00 99 1012.9
20260902094124 70 135 0.0 0.0 0.00 0.00 0.00 99 1012.9
20260902093623 71 135 0.0 0.0 0.00 0.00 0.00 99 1013.0
20260902093119 70 135 0.0 0.0 0.00 0.00 0.00 99 1013.0
20260902092618 70 135 0.0 0.0 0.00 0.00 0.00 99 1012.9
20260902092114 70 135 0.0 0.0 0.00 0.00 0.00 99 1013.0
20260902091609 71 135 0.0 0.0 0.00 0.00 0.00 99 1012.8
20260902091105 71 135 0.0 0.0 0.00 0.00 0.00 99 1012.7
20260902090600 72 135 0.0 0.0 0.00 0.00 0.00 99 1012.7
20260902090059 72 135 0.0 0.0 0.00 0.00 0.00 99 1012.8
20260902085600 72 131 0.0 0.0 0.00 0.00 0.00 99 1012.5
20260902085054 72 132 0.0 0.0 0.00 0.00 0.00 99 1012.6
20260902084551 73 131 0.0 0.0 0.00 0.00 0.00 99 1012.5
20260902084047 74 132 0.0 0.0 0.00 0.00 0.00 99 1012.6
20260902083542 74 143 0.0 0.0 0.00 0.00 0.00 99 1012.6
20260902083042 74 217 0.0 0.9 0.00 0.00 0.00 99 1012.7
20260902082537 74 145 0.0 0.9 0.00 0.00 0.00 99 1012.7
20260902082034 74 135 0.0 0.9 0.00 0.00 0.00 99 1012.7
20260902081530 74 150 0.0 0.9 0.00 0.00 0.00 99 1012.6
20260902081030 74 144 0.9 0.9 0.00 0.00 0.00 99 1012.5
20260902080525 74 146 0.0 0.0 0.00 0.00 0.00 99 1012.5
20260902080022 74 148 0.0 0.9 0.00 0.00 0.00 99 1012.5
20260902075516 74 136 0.0 0.0 0.00 0.00 0.00 99 1012.6
20260902075012 74 139 0.0 0.0 0.00 0.00 0.00 99 1012.7
20260902074507 74 140 0.0 0.0 0.00 0.00 0.00 99 1012.8
20260902074007 74 140 0.0 0.0 0.00 0.00 0.00 99 1012.8
20260902073503 74 130 0.0 0.9 0.00 0.00 0.00 99 1012.7
20260902072959 74 136 0.0 0.0 0.00 0.00 0.00 99 1012.7
20260902072455 74 146 0.9 0.9 0.00 0.00 0.00 99 1012.6
20260902071951 74 142 0.0 0.0 0.00 0.00 0.00 99 1012.6
20260902071450 74 153 0.0 0.9 0.00 0.00 0.00 99 1012.5
20260902070947 74 135 0.0 0.9 0.00 0.00 0.00 99 1012.5
20260902070442 74 163 0.0 0.0 0.00 0.00 0.00 99 1012.3
20260902065941 73 135 0.0 0.9 0.00 0.00 0.00 99 1012.4
20260902065437 73 137 0.0 0.0 0.00 0.00 0.00 99 1012.5
20260902064937 73 134 0.0 0.9 0.00 0.00 0.00 99 1012.5
20260902064433 73 145 0.0 0.9 0.00 0.00 0.00 99 1012.4
20260902063928 72 136 0.0 0.9 0.00 0.00 0.00 99 1012.2
20260902063428 72 147 0.0 0.9 0.00 0.00 0.00 99 1012.5
20260902062923 72 138 0.0 0.9 0.00 0.00 0.00 99 1012.4
20260902062422 71 137 0.0 0.0 0.00 0.00 0.00 99 1012.5
20260902061917 71 136 0.0 0.0 0.00 0.00 0.00 99 1012.4
20260902061412 71 126 0.0 0.0 0.00 0.00 0.00 99 1012.7
20260902060908 71 126 0.0 0.0 0.00 0.00 0.00 99 1012.8
20260902060404 71 126 0.0 0.0 0.00 0.00 0.00 99 1012.7
20260902055900 71 126 0.0 0.0 0.00 0.00 0.00 99 1012.8
20260902055355 70 128 0.0 0.0 0.00 0.00 0.00 99 1012.8
20260902054851 70 126 0.0 0.0 0.00 0.00 0.00 99 1012.8
20260902054346 71 125 0.0 0.0 0.00 0.00 0.00 99 1012.6
20260902053841 71 127 0.0 0.0 0.00 0.00 0.00 99 1012.8
20260902053336 70 137 0.0 0.0 0.00 0.00 0.00 99 1012.9
20260902052835 70 137 0.0 0.0 0.00 0.00 0.00 99 1013.1
20260902052332 69 137 0.0 0.0 0.00 0.00 0.00 99 1013.0
20260902051832 69 138 0.0 0.0 0.00 0.00 0.00 99 1013.0
20260902051332 70 138 0.0 0.0 0.00 0.00 0.00 99 1013.1
20260902050831 70 138 0.0 0.0 0.00 0.00 0.00 99 1013.2
20260902050331 70 138 0.0 0.0 0.00 0.00 0.00 99 1012.9
20260902045826 71 138 0.0 0.0 0.00 0.00 0.00 99 1013.1
20260902045322 71 137 0.0 0.0 0.00 0.00 0.00 99 1012.9
20260902044818 71 137 0.0 0.0 0.00 0.00 0.00 99 1013.0
20260902044314 70 137 0.0 0.0 0.00 0.00 0.00 99 1013.0
20260902043813 71 137 0.0 0.0 0.00 0.00 0.00 99 1012.8